Volver al catálogo

FENGYUN 1C DEB

ActivoSSO
NORAD 29876·DEBRIS·🇨🇳 China

Lanzado May 10, 1999 desde Taiyuan Satellite Launch Center

Loading…

Próximos Pases (próximas 24 horas)

TLE

ActualizadoSource: Space-Track

Época: Sep 14, 2026, 09:30 UTC

1 29876U 99025FW  26257.39643703  .00000133  00000-0  79681-4 0  9996
2 29876  98.2969 296.5376 0059990 293.0145 134.5186 14.20451612 18295

Sigue FENGYUN 1C DEB en tiempo real con AllMySat

Download on the App Store